TimeCEST,TemperatureF,Dew PointF,Humidity,Sea Level PressureIn,VisibilityMPH,Wind Direction,Wind SpeedMPH,Gust SpeedMPH,PrecipitationIn,Events,Conditions,WindDirDegrees,DateUTC
12:00 AM,41.0,41.0,100,30.01,-9999.0,WSW,4.6,-,N/A,,Clear,240,2013-10-16 22:00:00
1:00 AM,41.0,41.0,100,30.01,-9999.0,SE,3.5,-,N/A,,Clear,140,2013-10-16 23:00:00
2:00 AM,39.2,39.2,100,29.98,-9999.0,South,2.3,-,N/A,,Clear,180,2013-10-17 00:00:00
3:00 AM,39.2,39.2,100,30.01,-9999.0,SE,2.3,-,N/A,,Clear,130,2013-10-17 01:00:00
4:00 AM,39.2,39.2,100,29.98,-9999.0,SE,2.3,-,N/A,,Clear,140,2013-10-17 02:00:00
5:00 AM,37.4,37.4,100,29.98,-9999.0,ESE,3.5,-,N/A,,Clear,120,2013-10-17 03:00:00
6:00 AM,37.4,37.4,100,29.98,-9999.0,SE,2.3,-,N/A,,Clear,140,2013-10-17 04:00:00
7:00 AM,37.4,37.4,100,29.95,5.0,SE,3.5,-,N/A,,Scattered Clouds,140,2013-10-17 05:00:00
8:00 AM,39.2,37.4,93,29.98,5.0,SE,4.6,-,N/A,,Unknown,130,2013-10-17 06:00:00
9:00 AM,41.0,39.2,93,29.98,6.2,ESE,5.8,-,N/A,,Mostly Cloudy,120,2013-10-17 07:00:00
10:00 AM,41.0,41.0,100,29.98,5.0,East,2.3,-,N/A,Rain,Light Rain,80,2013-10-17 08:00:00
11:00 AM,44.6,42.8,93,29.98,3.1,SE,3.5,-,N/A,Rain,Light Rain,130,2013-10-17 09:00:00
11:02 AM,44.6,42.8,93,29.98,1.2,SE,4.6,-,N/A,Rain,Light Rain,130,2013-10-17 09:02:00
11:44 AM,44.6,44.6,100,29.98,2.5,SSE,3.5,-,N/A,Rain,Light Rain,160,2013-10-17 09:44:00
12:00 PM,46.4,44.6,93,29.98,6.2,SSE,4.6,-,N/A,,Overcast,150,2013-10-17 10:00:00
1:00 PM,51.8,48.2,88,29.95,6.2,West,9.2,-,N/A,,Mostly Cloudy,260,2013-10-17 11:00:00
2:00 PM,53.6,48.2,82,29.95,-9999.0,West,13.8,-,N/A,,Clear,280,2013-10-17 12:00:00
3:00 PM,55.4,50.0,82,29.95,6.2,WSW,9.2,-,N/A,,Mostly Cloudy,250,2013-10-17 13:00:00
4:00 PM,57.2,50.0,77,29.95,-9999.0,West,13.8,-,N/A,,Clear,260,2013-10-17 14:00:00
5:00 PM,57.2,50.0,77,29.92,6.2,WSW,10.4,-,N/A,,Scattered Clouds,240,2013-10-17 15:00:00
6:00 PM,55.4,50.0,82,29.92,-9999.0,SW,12.7,-,N/A,,Clear,230,2013-10-17 16:00:00
7:00 PM,53.6,48.2,82,29.92,-9999.0,WSW,13.8,-,N/A,,Clear,240,2013-10-17 17:00:00
8:00 PM,53.6,50.0,88,29.92,-9999.0,WSW,13.8,-,N/A,,Clear,240,2013-10-17 18:00:00
9:00 PM,55.4,48.2,77,29.89,-9999.0,SW,12.7,-,N/A,,Clear,230,2013-10-17 19:00:00
10:00 PM,55.4,50.0,82,29.89,-9999.0,WSW,15.0,-,N/A,,Clear,240,2013-10-17 20:00:00
11:00 PM,53.6,50.0,88,29.86,-9999.0,WSW,13.8,-,N/A,,Clear,240,2013-10-17 21:00:00